Regional Weather Roundup
Issued by NWS Pendleton, OR

Home | Current Version | Previous Version | Text Only | Print | Product List | Glossary On
Versions: 1 2 3 4 5 6 7 8 9 10 11 12 13 14 15 16 17 18 19 20 21 22 23 24 25 26 27 28 29 30 31 32 33 34 35 36 37 38 39 40 41 42 43 44 45 46 47 48 49 50
000
ASUS46 KPDT 291425
RWRPDT
PENDLETON REGIONAL WEATHER ROUNDUP
NATIONAL WEATHER SERVICE PENDLETON OREGON
700 AM PDT TUE JUL 29 2014

NOTE: FAIR INDICATES FEW OR NO CLOUDS BELOW 12,000 FEET WITH NO
SIGNIFICANT WEATHER AND/OR OBSTRUCTIONS TO VISIBILITY.

# INDICATES UNOFFICIAL STATION AND DATA

WAZ520-291510-
EAST SLOPES OF WASHINGTON CASCADES

CITY            SKY/WX      TMP DP  RH  WIND    PRES   REMARKS
#BUMPING DAM    N/A         52  N/A N/A N1      N/A
#CLE ELUM HS    N/A         54  50  86  CALM    30.05R
#CLE ELUM LAKE  N/A         62  48  60  E2      29.95R
#CLIFFDEL 2NW   N/A         54  46  74  N1      N/A
#GLENWOOD       N/A         50  49  96  CALM    30.00R
#MANASTASH CYN  N/A         63  44  50  CALM    30.09S
#NELSON         N/A         54  47  77  CALM    30.01S
#NELSON 3SW     N/A         59  46  62  CALM    30.18R
#NILE           N/A         57  49  75  CALM    29.32R
#TEANAWAY 4NE   N/A         54  51  90  CALM    N/A
#TROUT LAKE 1NE N/A         55  50  83  CALM    30.00R
$$

WAZ521-291510-
SIMCOE HIGHLANDS

CITY            SKY/WX      TMP DP  RH  WIND    PRES   REMARKS
#BICKLETON HS   N/A         71  40  32  CALM    30.15S
#CENTERVILLE 1SWN/A         57  51  80  CALM    29.96R
#GOLDENDALE 1NE N/A         56  46  69  N3      N/A
#GOLDENDALE 1S  N/A         57  51  80  CALM    30.05R
#GOLDENDALE 5WNWN/A         61  51  70  CALM    29.96R
#GOODNOE HILLS  N/A         73  57  57  W12     29.98R
#LYLE 6NE       N/A         63  57  81  SE5     29.96R
$$

WAZ026-291510-
KITTITAS VALLEY

CITY            SKY/WX      TMP DP  RH  WIND    PRES   REMARKS
ELLENSBURG AP   SUNNY       67  53  61  E3      30.08R
#ELLENSBURG CWU N/A         64  53  67  CALM    29.93S
#ELLENSBURG 3NE N/A         61  53  75  CALM    30.07R
#KITTITAS 3S    N/A         57  54  90  CALM    29.97R
#THORP 6N       N/A         64  51  63  N8      29.98R
$$

WAZ027-291510-
YAKIMA VALLEY

CITY            SKY/WX      TMP DP  RH  WIND    PRES   REMARKS
YAKIMA AIRPORT  SUNNY       70  54  57  W9      30.04R
YAKIMA-VAGABOND SUNNY       73  48  41  N6      30.06R
#COWICHE 1N     N/A         71  50  47  NW5     30.18R
#DONALD 2NE     N/A         74  45  35  S1      30.32S
#GRANDVIEW      N/A         65  56  73  CALM    29.97R
#MOXEE 2E       N/A         73  44  35  CALM    29.94S
#NACHES 2SW     N/A         70  52  53  W7      30.05S
#OUTLOOK DOT    N/A         N/A N/A N/A CALM    N/A
#SELAH 8E       N/A         71  45  39  E2      N/A
#TERRACE HTS    N/A         66  52  61  CALM    29.91R
#TOPPENISH      N/A         69  55  61  CALM    29.88R
#WAPATO 4NE     N/A         74  45  35  S1      30.32S
#WEST VALLEY    N/A         64  53  67  CALM    29.95R
#W YAKIMA       N/A         73  53  49  N2      29.96R
#WHITE SWAN 5E  N/A         62  55  78  CALM    29.96R
#WILEY CITY 3W  N/A         62  48  60  CALM    30.03R
$$

WAZ028-291510-
LOWER COLUMBIA BASIN...WASHINGTON

CITY            SKY/WX      TMP DP  RH  WIND    PRES   REMARKS
HANFORD         MOSUNNY     75  47  37  NW3     29.98
PASCO           SUNNY       65  57  75  CALM    30.00R
PROSSER AWOS    N/A         70  59  68  CALM    30.03R
RICHLAND AWOS   SUNNY       70  54  57  CALM    29.99R
#BASIN CITY 5SW N/A         63  58  84  CALM    29.99R
#BENTON CITY    N/A         70  57  63  CALM    29.86R
#CONNELL 5N     N/A         64  45  50  NE1     29.95R
#CONNELL 5NW    N/A         62  35  36  CALM    29.91R
#ELTOPIA        N/A         64  52  65  CALM    29.93R
#ELTOPIA 6NW    N/A         70  53  55  N1      28.97R
#KENNEWICK 3S   N/A         75  55  50  S1      29.95R
#PASCO-BROADMOORN/A         70  56  61  NE1     29.85S
#PATERSON       N/A         67  55  65  CALM    29.96R
#PROSSER        N/A         76  51  42  CALM    29.95R
#SAGEMOOR 2W    N/A         66  55  68  CALM    29.81R
#TOUCHET 2S     N/A         59  54  83  CALM    29.96R
#WEST PASCO     N/A         66  54  65  E1      29.96R
$$

WAZ029-291510-
FOOTHILLS OF THE BLUES...WASHINGTON

CITY            SKY/WX      TMP DP  RH  WIND    PRES   REMARKS
WALLA WALLA AP  SUNNY       79  49  35  S5      30.04R
#COLLEGE PLACE  N/A         74  50  43  CALM    30.00R
#DAYTON SCHOOL  N/A         67  45  45  CALM    30.04R
#LOWDEN 2SE     N/A         66  53  63  E1      29.96R
#PLEASANT VIEW 1N/A         75  47  37  S9      29.96R
#PRESCOTT       N/A         63  51  65  CALM    29.96R
#SUDBURY        N/A         70  N/A N/A NE5     N/A
#WHITMAN COLLEGEN/A         78  52  40  CALM    30.01R
#WAITSBURG 8N   N/A         78  35  21  S6      29.88S
#WALLA WALLA 5E N/A         71  49  46  S15     N/A
#WALLA WALLA U  N/A         72  51  48  CALM    29.95R
#WHITMAN MISSIONN/A         63  55  75  CALM    29.97R
$$

WAZ030-291510-
BLUE MOUNTAINS...WASHINGTON

CITY            SKY/WX      TMP DP  RH  WIND    PRES   REMARKS
$$

ORZ009-041-WAZ024-291510-
COLUMBIA RIVER GORGE

CITY            SKY/WX      TMP DP  RH  WIND    PRES   REMARKS
HOOD RIVER AP   SUNNY       63  50  62  S6      30.06S
THE DALLES AP   SUNNY       71  58  64  NW8     30.02R
#ARLINGTON AIRPON/A         74  57  55  SW8     N/A
#ARLINGTON HS   N/A         76  56  50  N2      29.88R
#CELILO DOT     N/A         74  55  51  S2      N/A
#MOSIER 1S      N/A         65  55  70  CALM    30.12R
#MURDOCK        N/A         71  62  73  W13     30.02R
#RUFUS DOT      N/A         N/A N/A N/A NE2     N/A

$$

ORZ510-291510-
NORTH CENTRAL OREGON

CITY            SKY/WX      TMP DP  RH  WIND    PRES   REMARKS
#CHENOWITH 1W   N/A         65  55  70  W29     N/A
#COW CYN RST AREN/A         76  43  31  CALM    N/A
#DUFUR 9E       N/A         74  44  34  W5      29.98
#GRASS VALLEY 1SN/A         66  46  48  SW2     29.99R
#MAUPIN SCHOOL  N/A         64  50  60  CALM    30.08R
#MORO SCHOOL    N/A         70  55  59  CALM    30.08R
#SHANIKO 5WSW   N/A         74  37  26  S3      N/A
#SHANIKO 4NW    N/A         73  35  25  SE1     30.18R
#TYGH VALLEY 2NEN/A         61  47  60  CALM    29.99R
#WAPANITIA AIRPON/A         66  49  54  CALM    29.98R
#WASCO 5NE      N/A         70  55  59  W7      29.95R
$$

ORZ511-291510-
CENTRAL OREGON

CITY            SKY/WX      TMP DP  RH  WIND    PRES   REMARKS
BEND AIRPORT    PTCLDY      63  50  62  SW9     30.20R
MADRAS AIRPORT  PTCLDY      61  48  62  S6      30.14R
REDMOND AIRPORT PTCLDY      62  47  58  SE3     30.16R
#BEND 6E        N/A         62  47  58  CALM    29.94R
#BEND 1SW       N/A         57  48  72  SW1     N/A
#BEND-AWBREY    N/A         65  51  60  CALM    29.96R
#BEND-KIM LN    N/A         63  51  65  S7      30.16R
#CULVER         N/A         62  52  70  CALM    30.10R
#LAKE BILLY CHINN/A         66  35  32  CALM    30.17R
#POWELL BUTTE 3EN/A         59  46  62  SE1     N/A
#POWELL BUTTE   N/A         64  47  54  W1      29.81R
#PRINEVILLE 3N  N/A         58  51  77  CALM    29.95R


ORZ509-291510-
EAST SLOPES OF OREGON CASCADES

CITY            SKY/WX      TMP DP  RH  WIND    PRES   REMARKS
#BLUE BOX PASS  N/A         61   8  12  CALM    N/A
#BLACK BUTTE RNCN/A         57  51  80  CALM    29.99R
#CAMP SHERMAN   N/A         49  45  86  CALM    30.06R
#LA PINE DOT    N/A         54  43  66  CALM    N/A
#LA PINE 4NW    N/A         45  40  82  CALM    30.06R
#LAVA BUTTE DOT N/A         57  48  72  S15     N/A
#SISTERS AIRPOR N/A         54  51  90  CALM    30.15R
#SISTERS ODOT   N/A         54  N/A N/A CALM    N/A
#SISTERS 3N     N/A         54  45  71  CALM    N/A
#SUNRIVER       N/A         50  47  89  SE1     29.93R
#SUNRIVER AP    N/A         47  45  93  CALM    30.00R
#SUTTLE LK DOT  N/A         57  54  90  CALM    N/A
#TUMALO 3W      N/A         69  47  45  SW5     29.84R
#WANOGA BUTTE D N/A         69  38  32  NE2     N/A

$$

ORZ044-291510-
LOWER COLUMBIA BASIN...OREGON

CITY            SKY/WX      TMP DP  RH  WIND    PRES   REMARKS
HERMISTON       SUNNY       71  48  44  SE3     30.01R
#BOARDMAN SCHOOLN/A         64  57  78  CALM    29.98R
#BOARDMAN 3W    N/A         71  63  76  NW2     29.71R
#BOARDMAN 8SW   N/A         70  58  66  SW3     29.96R
#IONE SCHOOL    N/A         66  46  48  CALM    30.03R
#IRRIGON 4NW    N/A         63  57  81  E1      N/A
#UMATILLA SCHOOLN/A         69  57  66  CALM    30.02F
#UMATILLA       N/A         66  50  56  CALM    29.98R
$$

ORZ507-291510-
NORTHERN FOOTHILLS OF THE BLUES

CITY            SKY/WX      TMP DP  RH  WIND    PRES   REMARKS
PENDLETON AIRPT SUNNY       69  45  42  SE7     30.05R
#ADAMS 3WNW     N/A         65  48  54  CALM    29.96R
#ATHENA         N/A         67  50  54  CALM    29.98R
#HELIX SCHOOL   N/A         59  45  60  CALM    29.96R
#HELIX 3N       N/A         72  46  39  CALM    30.03S
#HOLDMAN 5SE    N/A         69  46  44  CALM    30.05R
#HOLDMAN 6E     N/A         72  45  38  CALM    29.78R
#M-F FERNDALE   N/A         73  53  49  CALM    30.01R
#M-FREEWATER 5SEN/A         72  51  48  NE3     30.03R
#PDT AQUATIC CTRN/A         63  46  54  CALM    29.98R
#PENDLETON 5NE  N/A         63  49  60  CALM    30.01R
#PDT SUNRIDGE   N/A         64  49  58  CALM    30.06R
#PENDLETON 7NW  N/A         66  47  50  E5      28.54S
#PILOT ROCK     N/A         72  41  33  S6      30.08R
#TUTUILLA       N/A         65  54  68  S1      29.93R
#UMAPINE 2E     N/A         72  60  66  CALM    29.98R
#WESTON SCHOOL  N/A         73  47  40  W2      30.04R

$$

ORZ508-291510-
SOUTHERN FOOTHILLS OF THE BLUES

CITY            SKY/WX      TMP DP  RH  WIND    PRES   REMARKS
#AJAX           N/A         N/A N/A N/A SW1     30.12R
#CONDON SCHOOL  N/A         68  45  44  CALM    30.09R
#CONDON 5W      N/A         73  37  27  NW7     30.12R
#FOSSIL SCHOOL  N/A         60  46  60  CALM    30.11R
#HEPPNER 4NE    N/A         74  45  35  SW2     29.95R
#LEXINGTON 2SE  N/A         69  47  45  SE8     30.04R
#MIKKALO        N/A         72  45  38  CALM    30.06R
#OLEX 4N        N/A         72  50  46  SW7     30.02R
#RUGGS 5NE      N/A         73  44  35  CALM    30.30S
#RUGGS 2SW      N/A         74  44  34  SW6     29.99R

$$

ORZ502-503-291510-
BLUE MOUNTAINS

CITY            SKY/WX      TMP DP  RH  WIND    PRES   REMARKS
MEACHAM         SUNNY       52  45  77  CALM    30.19S
#BATTLE MTN DOT N/A         62  47  58  S2      N/A
#HARDMAN 10S    N/A         68  43  40  CALM    30.24S
#HEPPNER 15SE   N/A         62  50  65  CALM    30.13R
#LADD CYN SMT   N/A         64  42  45  W1      N/A
#LADD CREEK ODOTN/A         62  44  52  S2      N/A
#LONG CREEK HS  N/A         61  45  56  CALM    30.14R
#PIKES PEAK     N/A         74  47  38  SW8     27.99S
#TROY SCHOOL    N/A         61  51  70  CALM    29.86R
#UKIAH          N/A         46  43  89  CALM    30.06R
#WESTON 4E      N/A         70  48  46  CALM    29.88R
$$

ORZ505-291510-
JOHN DAY BASIN

CITY            SKY/WX      TMP DP  RH  WIND    PRES   REMARKS
JOHN DAY        PTCLDY      68  39  35  E6      30.20R
#MONUMENT HS    N/A         60  44  55  CALM    29.89R
#MT. VERNON 5SE N/A         68  39  35  CALM    30.16R
#WINLOCK        N/A         70  52  53  CALM    30.23R
$$

ORZ506-291510-
OCHOCO AND JOHN DAY HIGHLANDS

CITY            SKY/WX      TMP DP  RH  WIND    PRES   REMARKS
#BUCK CREEK DOT N/A         66  43  43  CALM    N/A
#HORSE RIDGE DO N/A         50  38  63  SW1     N/A
#KEYES SMT DOT  N/A         71  41  34  NW2     N/A
#PINE MTN OBS   N/A         66  35  32  CALM    N/A
#PRAIRIE CITY   N/A         53  44  71  CALM    30.19F
#SENECA 9NW     N/A         50  39  66  CALM    29.93
$$

ORZ049-291510-
GRANDE RONDE VALLEY

CITY            SKY/WX      TMP DP  RH  WIND    PRES   REMARKS
LA GRANDE       SUNNY       64  43  46  CALM    30.14R
#COVE           N/A         60  52  75  CALM    30.05R
#COVE SCHOOL    N/A         59  48  67  CALM    30.11R
#COVE 6NW       N/A         53  47  80  CALM    30.01R
#ELGIN 3N       N/A         60  49  67  CALM    29.86R
#ELGIN 1E       N/A         55  47  74  CALM    N/A
#IMBLER SCHOOL  N/A         68  49  51  CALM    30.09R
#ISLAND CITY 4N N/A         60  51  72  CALM    29.91R
#LADD CYN DOT   N/A         66  42  42  E3      N/A
#UNION 1S       N/A         60  49  67  CALM    29.88R
$$

ORZ050-291510-
WALLOWA COUNTY

CITY            SKY/WX      TMP DP  RH  WIND    PRES   REMARKS
#ENTERPRISE AP  N/A          0  -78  1  CALM    N/A
#ENTERPRISE HS  N/A         55  47  74  CALM    30.18R
#IMNAHA 10S     N/A         67  42  40  SW6     30.13R
#JOSEPH 3N      N/A         59  51  75  NE1     30.19S
#JOSEPH 3W      N/A         76  45  33  CALM    30.06R
#LOSTINE        N/A         59  48  67  CALM    29.78R
#MT HOWARD 8000 N/A         64  39  40  CALM    30.51R
#PROMISE 1S     N/A         66  51  58  CALM    30.05S
#SHEEP RDG 7000 N/A         68  39  35  CALM    29.91S
#WALLOWA SCHOOL N/A         55  46  72  CALM    30.86R



$$



USA.gov is the U.S. government's official web portal to all federal, state and local government web resources and services.